When you browse on this site, cookies collect data to enhance your experience and personalize the content and advertising you see.
Visit our Privacy Policy to learn more. By continuing to use the site, you agree to this use of cookies and data.
  • In Hungary
  • List of Countries
  • For 7 days
  • Water Temperature
  • Weather Map
  • News
  • Weather Widgets
  • user-avatar
    Login

    Hourly Weather Tavriya

    Today, 14 November, Thursday

    Time Temperature Precipitation Wind Pressure Humidity
    00:00 +8°C° 0 mm 7 mps 759 mmHg 72%
    01:00 +8°C° 0 mm 7 mps 759 mmHg 73%
    02:00 +6°C° 0 mm 7 mps 759 mmHg 74%
    03:00 +6°C° 0 mm 7 mps 759 mmHg 74%
    04:00 +6°C° 0 mm 7 mps 758 mmHg 75%
    05:00 +6°C° 0 mm 8 mps 758 mmHg 75%
    06:00 +6°C° 0 mm 8 mps 758 mmHg 74%
    07:00 +6°C° 0 mm 9 mps 759 mmHg 73%
    08:00 +7°C° 0 mm 10 mps 759 mmHg 72%
    09:00 +8°C° 0 mm 10 mps 759 mmHg 67%
    10:00 +9°C° 0 mm 10 mps 758 mmHg 61%
    11:00 +11°C° 0 mm 10 mps 758 mmHg 55%
    12:00 +11°C° 0 mm 10 mps 758 mmHg 53%
    13:00 +11°C° 0 mm 10 mps 758 mmHg 51%
    14:00 +11°C° 0 mm 10 mps 758 mmHg 48%
    15:00 +11°C° 0 mm 9 mps 758 mmHg 49%
    16:00 +10°C° 0 mm 9 mps 757 mmHg 51%
    17:00 +9°C° 0 mm 8 mps 757 mmHg 52%
    18:00 +9°C° 0 mm 8 mps 758 mmHg 53%
    19:00 +9°C° 0 mm 8 mps 758 mmHg 53%
    20:00 +8°C° 0 mm 9 mps 758 mmHg 54%
    21:00 +8°C° 0 mm 9 mps 758 mmHg 55%
    22:00 +7°C° 0 mm 9 mps 758 mmHg 56%
    23:00 +7°C° 0 mm 9 mps 758 mmHg 56%

    Tomorrow, 15 November, Friday

    Time Temperature Precipitation Wind Pressure Humidity
    00:00 +7°C° 0 mm 9 mps 758 mmHg 58%
    01:00 +7°C° 0 mm 8 mps 758 mmHg 60%
    02:00 +6°C° 0 mm 8 mps 758 mmHg 62%
    03:00 +6°C° 0 mm 8 mps 758 mmHg 62%
    04:00 +6°C° 0 mm 8 mps 758 mmHg 62%
    05:00 +6°C° 0 mm 8 mps 757 mmHg 62%
    06:00 +6°C° 0 mm 8 mps 758 mmHg 62%
    07:00 +6°C° 0 mm 8 mps 758 mmHg 62%
    08:00 +6°C° 0 mm 8 mps 758 mmHg 61%
    09:00 +9°C° 0 mm 8 mps 759 mmHg 59%
    10:00 +10°C° 0 mm 8 mps 759 mmHg 56%
    11:00 +11°C° 0 mm 8 mps 759 mmHg 53%
    12:00 +11°C° 0 mm 8 mps 759 mmHg 52%
    13:00 +11°C° 0 mm 8 mps 759 mmHg 51%
    14:00 +11°C° 0 mm 7 mps 759 mmHg 50%
    15:00 +11°C° 0 mm 7 mps 759 mmHg 52%
    16:00 +10°C° 0 mm 6 mps 759 mmHg 54%
    17:00 +9°C° 0 mm 5 mps 759 mmHg 55%
    18:00 +9°C° 0 mm 5 mps 760 mmHg 56%
    19:00 +8°C° 0 mm 5 mps 760 mmHg 56%
    20:00 +8°C° 0 mm 5 mps 760 mmHg 57%
    21:00 +8°C° 0 mm 4 mps 760 mmHg 59%
    22:00 +7°C° 0 mm 4 mps 760 mmHg 61%
    23:00 +7°C° 0 mm 4 mps 760 mmHg 63%

    Day after tomorrow, 16 November, Saturday

    Time Temperature Precipitation Wind Pressure Humidity
    00:00 +7°C° 0 mm 4 mps 761 mmHg 66%
    01:00 +6°C° 0 mm 4 mps 761 mmHg 69%
    02:00 +6°C° 0 mm 4 mps 761 mmHg 73%
    03:00 +5°C° 0 mm 4 mps 761 mmHg 74%
    04:00 +5°C° 0 mm 4 mps 761 mmHg 76%
    05:00 +4°C° 0 mm 3 mps 761 mmHg 77%
    06:00 +5°C° 0 mm 4 mps 761 mmHg 76%
    07:00 +5°C° 0 mm 4 mps 762 mmHg 74%
    08:00 +5°C° 0 mm 4 mps 762 mmHg 73%
    09:00 +7°C° 0 mm 4 mps 762 mmHg 67%
    10:00 +8°C° 0 mm 4 mps 762 mmHg 61%
    11:00 +10°C° 0 mm 3 mps 762 mmHg 55%
    12:00 +11°C° 0 mm 3 mps 762 mmHg 53%
    13:00 +11°C° 0 mm 3 mps 762 mmHg 50%
    14:00 +12°C° 0 mm 3 mps 762 mmHg 48%
    15:00 +11°C° 0 mm 3 mps 762 mmHg 52%
    16:00 +10°C° 0 mm 3 mps 762 mmHg 57%
    17:00 +8°C° 0 mm 2 mps 762 mmHg 61%
    18:00 +8°C° 0 mm 2 mps 762 mmHg 62%
    19:00 +8°C° 0 mm 2 mps 762 mmHg 62%
    20:00 +7°C° 0 mm 2 mps 762 mmHg 63%
    21:00 +7°C° 0 mm 2 mps 762 mmHg 64%
    22:00 +7°C° 0 mm 3 mps 762 mmHg 65%
    23:00 +5°C° 0 mm 3 mps 762 mmHg 66%

    17 November, Sunday

    Time Temperature Precipitation Wind Pressure Humidity
    00:00 +5°C° 0 mm 3 mps 762 mmHg 70%
    01:00 +5°C° 0 mm 3 mps 762 mmHg 73%
    02:00 +5°C° 0 mm 3 mps 762 mmHg 77%
    03:00 +4°C° 0 mm 3 mps 762 mmHg 81%
    04:00 +4°C° 0 mm 3 mps 762 mmHg 84%
    05:00 +4°C° 0 mm 4 mps 762 mmHg 88%
    06:00 +4°C° 0 mm 4 mps 762 mmHg 87%
    07:00 +4°C° 0 mm 4 mps 763 mmHg 86%
    08:00 +5°C° 0 mm 4 mps 763 mmHg 85%
    09:00 +6°C° 0 mm 4 mps 763 mmHg 78%
    10:00 +7°C° 0 mm 4 mps 763 mmHg 71%
    11:00 +9°C° 0 mm 5 mps 762 mmHg 64%
    12:00 +9°C° 0 mm 5 mps 762 mmHg 62%
    13:00 +10°C° 0 mm 5 mps 762 mmHg 60%
    14:00 +10°C° 0 mm 5 mps 762 mmHg 58%
    15:00 +10°C° 0 mm 4 mps 762 mmHg 61%
    16:00 +8°C° 0 mm 4 mps 762 mmHg 64%
    17:00 +8°C° 0 mm 3 mps 762 mmHg 67%
    18:00 +8°C° 0 mm 3 mps 762 mmHg 67%
    19:00 +7°C° 0 mm 4 mps 761 mmHg 68%
    20:00 +7°C° 0 mm 4 mps 761 mmHg 68%
    21:00 +7°C° 0 mm 4 mps 761 mmHg 69%
    22:00 +7°C° 0 mm 4 mps 761 mmHg 70%
    23:00 +7°C° 0 mm 5 mps 761 mmHg 71%

    18 November, Monday

    Time Temperature Precipitation Wind Pressure Humidity
    00:00 +6°C° 0 mm 4 mps 761 mmHg 74%
    01:00 +6°C° 0 mm 4 mps 761 mmHg 77%
    02:00 +5°C° 0 mm 4 mps 761 mmHg 80%
    03:00 +5°C° 0 mm 4 mps 761 mmHg 82%
    04:00 +5°C° 0 mm 4 mps 761 mmHg 84%
    05:00 +4°C° 0 mm 4 mps 760 mmHg 87%
    06:00 +5°C° 0 mm 5 mps 761 mmHg 85%
    07:00 +5°C° 0 mm 5 mps 761 mmHg 83%
    08:00 +5°C° 0 mm 6 mps 761 mmHg 81%
    09:00 +7°C° 0 mm 6 mps 761 mmHg 75%
    10:00 +8°C° 0 mm 6 mps 761 mmHg 68%
    11:00 +10°C° 0 mm 6 mps 761 mmHg 62%
    12:00 +10°C° 0 mm 6 mps 760 mmHg 61%
    13:00 +10°C° 0 mm 5 mps 760 mmHg 61%
    14:00 +10°C° 0 mm 5 mps 760 mmHg 61%
    15:00 +9°C° 0 mm 5 mps 760 mmHg 67%
    16:00 +7°C° 0 mm 4 mps 760 mmHg 73%
    17:00 +7°C° 0 mm 3 mps 760 mmHg 79%
    18:00 +7°C° 0 mm 3 mps 760 mmHg 80%
    19:00 +5°C° 0 mm 3 mps 760 mmHg 81%
    20:00 +5°C° 0 mm 3 mps 760 mmHg 83%
    21:00 +5°C° 0 mm 3 mps 760 mmHg 84%
    22:00 +5°C° 0 mm 3 mps 760 mmHg 85%
    23:00 +5°C° 0 mm 3 mps 760 mmHg 85%

    19 November, Tuesday

    Time Temperature Precipitation Wind Pressure Humidity
    00:00 +5°C° 0 mm 3 mps 760 mmHg 87%
    01:00 +4°C° 0 mm 3 mps 760 mmHg 89%
    02:00 +4°C° 0 mm 3 mps 760 mmHg 90%
    03:00 +4°C° 0 mm 3 mps 760 mmHg 91%
    04:00 +4°C° 0 mm 3 mps 760 mmHg 91%
    05:00 +3°C° 0 mm 3 mps 760 mmHg 92%
    06:00 +4°C° 0 mm 3 mps 760 mmHg 91%
    07:00 +4°C° 0 mm 3 mps 760 mmHg 91%
    08:00 +4°C° 0 mm 3 mps 761 mmHg 90%
    09:00 +5°C° 0 mm 3 mps 761 mmHg 83%
    10:00 +8°C° 0 mm 3 mps 761 mmHg 76%
    11:00 +10°C° 0 mm 3 mps 761 mmHg 69%
    12:00 +10°C° 0 mm 3 mps 760 mmHg 66%
    13:00 +11°C° 0 mm 3 mps 760 mmHg 64%
    14:00 +11°C° 0 mm 3 mps 760 mmHg 61%
    15:00 +10°C° 0 mm 3 mps 760 mmHg 68%
    16:00 +9°C° 0 mm 2 mps 760 mmHg 75%
    17:00 +7°C° 0 mm 2 mps 760 mmHg 82%
    18:00 +7°C° 0 mm 2 mps 760 mmHg 84%
    19:00 +6°C° 0 mm 2 mps 760 mmHg 86%
    20:00 +6°C° 0 mm 2 mps 760 mmHg 89%
    21:00 +6°C° 0 mm 2 mps 760 mmHg 89%
    22:00 +6°C° 0 mm 2 mps 760 mmHg 89%
    23:00 +6°C° 0 mm 2 mps 760 mmHg 89%
    Show more